Notices

What's New in latest Release from April 7th, 2021:

- Updated Glossary, including Speed of Maximum Gust, and Total Hourly Precipitation

- Updated national and regional climate services offices contacts and prices information

- Addition of station inventory lists for 1981-2010, 1971-2000, and 1961-1990 Normals.

If you haven't already, please take our survey and provide feedback about our website: https://eccc.sondage-survey.ca/f/LanguageSelection.aspx?s=442ca660-fcf1-47c0-95a9-59707d6fd709

Hourly Data Report for March 08, 2006

TORONTO CITY
ONTARIO

43°40'00.000" N
79°24'00.000" W
112.50 m
6158355
71508
XTO

Download Data

Hourly Data (March 2006)
Hourly Data Report for March 8, 2006
TIME
LST
Temp Definition
°C
Dew Point Definition
°C
Rel Hum Definition
%
Precip. Amount Definition
mm

Wind Dir Definition
10's deg

Wind Spd Definition
km/h
Visibility Definition
km
Stn Press Definition
kPa
Hmdx Definition


Wind Chill Definition


Weather Definition


00:00 -1.0 -9.4 53   LegendMM LegendMM   100.94     LegendNANA
01:00 -1.1 -9.8 52   LegendMM LegendMM   100.91     LegendNANA
02:00 -1.3 -10.3 50   LegendMM LegendMM   100.84     LegendNANA
03:00 -1.4 -10.7 49   LegendMM LegendMM   100.85     LegendNANA
04:00 -1.1 -9.8 52   LegendMM LegendMM   100.75     LegendNANA
05:00 -1.4 -6.4 69   LegendMM LegendMM   100.71     LegendNANA
06:00 -0.9 -5.4 71   LegendMM LegendMM   100.66     LegendNANA
07:00 -0.3 -4.9 71   LegendMM LegendMM   100.58     LegendNANA
08:00 0.3 -4.2 72   LegendMM LegendMM   100.59     LegendNANA
09:00 1.0 -4.7 66   LegendMM LegendMM   100.51     LegendNANA
10:00 0.8 -5.9 61   LegendMM LegendMM   100.46     LegendNANA
11:00 0.9 -4.7 66   LegendMM LegendMM   100.36     LegendNANA
12:00 1.6 -6.0 57   LegendMM LegendMM   100.23     LegendNANA
13:00 1.6 -5.5 59   LegendMM LegendMM   100.16     LegendNANA
14:00 1.4 -5.7 59   LegendMM LegendMM   100.05     LegendNANA
15:00 1.8 -4.1 65   LegendMM LegendMM   99.92     LegendNANA
16:00 2.0 -3.3 68   LegendMM LegendMM   99.87     LegendNANA
17:00 2.4 -1.9 73   LegendMM LegendMM   99.78     LegendNANA
18:00 2.6 -0.9 78   LegendMM LegendMM   99.78     LegendNANA
19:00 2.7 -0.6 79   LegendMM LegendMM   99.77     LegendNANA
20:00 3.1 -0.3 78   LegendMM LegendMM   99.74     LegendNANA
21:00 3.4 -0.1 78   LegendMM LegendMM   99.70     LegendNANA
22:00 3.5 0.1 78   LegendMM LegendMM   99.64     LegendNANA
23:00 4.0 -0.6 72   LegendMM LegendMM   99.56     LegendNANA

Notes on Data Quality.

Legend

  • E = Estimated
  • M = Missing
  • NA = Not Available*
  • [empty] = Indicates an unobserved value
Date modified: